Tracking 20092 objects as of 14-Dec-2019
HD Live streaming from Space Station
objects crossing your sky now

COSMOS 2251 DEB

Track COSMOS 2251 DEB now!
10-day predictions


NORAD ID: 37971
Int'l Code: 1993-036BPW
Perigee: 738.8 km
Apogee: 876.1 km
Inclination: 74.0 °
Period: 100.9 minutes
Semi major axis: 7178 km
RCS: 0.0089 m2 (small)
Launch date: June 16, 1993
Source: Commonwealth of Independent States (former USSR) (CIS)
Launch site: PLESETSK MISSILE AND SPACE COMPLEX (PKMTR)

Note: This is SATELLITE DEBRIS
aabbcc
Your satellite tracking list
Your tracking list is empty




NASA's NSSDC Master Catalog

Two Line Element Set (TLE):
1 37971U 93036BPW 19345.57004669  .00001033  00000-0  41109-3 0  9992
2 37971  74.0033 100.6645 0095587  25.4610 335.1201 14.27438034525700
Source of the keplerian elements: AFSPC